User: anonymous   Login
Location: Katowice
(50.2611°N, 19.0242°E)
Time: 22:25:12
(UTC+02:00)
Language:

Vanguard 1 - Orbit

View from above orbital plane
View from above orbital plane
View from above satellite
View from above satellite

Ground track
Ground track

The orbit data is extracted from the following two-line orbital elements,

1     5U 58002B   19198.35696372  .00000031  00000-0  18377-4 0  9993
2     5  34.2536 183.5317 1842999 280.0123  59.8441 10.84764192168846
Epoch (UTC): 17 July 2019 08:34:01
Eccentricity: 0.1842999
inclination: 34.2536°
perigee height: 653 km
apogee height: 3830 km
right ascension of ascending node: 183.5317°
argument of perigee: 280.0123°
revolutions per day: 10.84764192
mean anomaly at epoch: 59.8441°
orbit number at epoch: 16884

The dashed part of the orbit path shows where the satellite is in the earth's shadow,  

DLR